Stations météo

réclame
Mon MeteoGroup
Cannes, France (7684): Température de l'air & dewpoint: 12.10.2019 20:00:00 - 18.10.2019 20:00:00 (CEST)Cannes, France (7684): Température de l'air 5cm: 12.10.2019 20:00:00 - 18.10.2019 20:00:00 (CEST)Cannes, France (7684): Vitesse du vent & gusts: 12.10.2019 20:00:00 - 18.10.2019 20:00:00 (CEST)Cannes, France (7684): Direction du vent: 12.10.2019 20:00:00 - 18.10.2019 20:00:00 (CEST)Cannes, France (7684): reduced air pressure: 12.10.2019 20:00:00 - 18.10.2019 20:00:00 (CEST)Cannes, France (7684): visibility: 12.10.2019 20:00:00 - 18.10.2019 20:00:00 (CEST)Cannes, France (7684): Quantités de précipitations: 12.10.2019 20:00:00 - 18.10.2019 20:00:00 (CEST)
Date & Time tt [°C] td [°C] tt 5cm [°C] ff [km/h] ff [knt] fx [km/h] fx [knt] dd ppp [hPa] vv [km] rr [mm]
18.10.2019 20:00:00 17,2 16,4 16,3 0 0 8 5 N 1016,6 14 0,2
18.10.2019 19:00:00 17,3 16,2 16,6 5 3 15 8 N 1016,1 18 0,0
18.10.2019 18:00:00 17,1 16,1 16,5 7 4 21 11 N 1016,2 6 5,0
18.10.2019 17:00:00 17,5 16,5 17,2 8 4 12 7 N 1016,4 1,6 4,3
18.10.2019 16:00:00 18,1 16,9 17,7 6 3 8 5 NNW 1016,6 16 1,2
18.10.2019 15:00:00 18,5 16,7 17,6 5 3 9 5 S 1016,8 6 1,0
18.10.2019 14:00:00 20,4 15,2 20,9 2 1 7 4 SE 1017,2 60 0,0
18.10.2019 13:00:00 19,9 15,3 21,1 6 4 9 5 S 1018,1 20 0,0
18.10.2019 12:00:00 19,7 15,1 20,3 0 0 5 3 N 1018,2 20 0,0
18.10.2019 11:00:00 18,3 14,8 18,7 2 1 11 6 N 1018,5 20 0,0
18.10.2019 10:00:00 16,7 14,0 15,5 5 3 9 5 N 1018,3 20 0,0
18.10.2019 09:00:00 14,6 13,0 12,4 6 3 12 6 N 1018,2 17 0,0
18.10.2019 08:00:00 13,6 12,3 12,3 5 3 11 6 N 1017,5 20 0,0
18.10.2019 07:00:00 13,4 12,3 12,5 5 3 13 7 N 1017,6 48 0,0
18.10.2019 06:00:00 13,4 12,3 12,5 5 3 14 7 N 1017,6 53 0,0
18.10.2019 05:00:00 13,2 12,3 11,8 8 4 13 7 N 1017,9 45 0,0
18.10.2019 04:00:00 13,3 12,2 11,9 4 2 14 8 NNW 1018,1 50 0,0
18.10.2019 03:00:00 13,8 12,5 13,0 5 3 15 8 N 1018,4 50 0,0
18.10.2019 02:00:00 14,0 12,7 13,1 8 4 15 8 N 1019,1 44 0,0
18.10.2019 01:00:00 14,0 13,0 12,7 8 4 13 7 N 1019,0 38 0,0
18.10.2019 00:00:00 13,8 12,9 12,5 6 3 13 7 N 1019,1 19 0,0
17.10.2019 23:00:00 14,2 13,2 12,9 5 3 9 5 N 1019,4 17 0,0
17.10.2019 22:00:00 14,8 13,7 13,3 4 2 9 5 N 1019,3 13 0,0
17.10.2019 21:00:00 15,6 14,1 14,2 4 2 8 4 N 1019,1 17 0,0
17.10.2019 20:00:00 16,1 14,3 14,4 5 3 10 6 N 1018,8 16 0,0
17.10.2019 19:00:00 17,5 14,4 16,0 6 3 18 10 NNE 1018,5 18 0,0
17.10.2019 18:00:00 18,3 15,0 17,8 10 6 16 9 N 1018,7 36 0,0
17.10.2019 17:00:00 19,3 15,8 19,3 5 3 9 5 S 1018,7 60 0,0
17.10.2019 16:00:00 20,0 15,8 20,6 4 2 11 6 S 1018,9 35 0,0
17.10.2019 15:00:00 19,7 16,0 19,2 6 3 13 7 S 1019,2 60 0,0
17.10.2019 14:00:00 19,2 15,7 19,2 7 4 13 7 SSE 1019,5 60 0,0
17.10.2019 13:00:00 19,7 15,3 20,5 7 4 11 6 SSE 1019,8 60 0,0
17.10.2019 12:00:00 20,0 14,8 21,2 6 3 11 6 SSE 1020,2 60 0,0
17.10.2019 11:00:00 20,7 15,0 23,1 0 0 10 6 N 1020,2 58 0,0
17.10.2019 10:00:00 17,1 15,1 15,7 6 3 11 6 N 1020,0 37 0,0
17.10.2019 09:00:00 14,9 14,1 13,8 3 2 11 6 NNW 1019,7 18 0,0
17.10.2019 08:00:00 14,5 13,7 13,8 4 2 8 5 N 1018,9 15 0,0
17.10.2019 07:00:00 14,6 13,8 14,1 5 3 11 6 N 1018,8 42 1,0
17.10.2019 06:00:00 14,3 13,5 13,8 3 2 10 5 NNW 1018,9 20 0,2
17.10.2019 05:00:00 14,2 13,1 13,7 4 2 12 6 N 1019,1 6 0,6
17.10.2019 04:00:00 14,7 12,0 13,7 5 3 16 9 N 1019,4 13 0,0
17.10.2019 03:00:00 14,3 10,7 12,5 8 5 15 8 N 1019,3 50 0,0
17.10.2019 02:00:00 13,2 10,2 11,1 5 3 14 7 N 1019,5 60 0,0
17.10.2019 01:00:00 13,0 9,4 11,1 6 3 15 8 N 1019,3 60 0,0
17.10.2019 00:00:00 13,0 9,6 10,2 7 4 12 6 N 1019,4 56 0,0
16.10.2019 23:00:00 13,9 9,5 11,0 6 3 11 6 N 1018,8 52 0,0
16.10.2019 22:00:00 14,0 10,2 11,8 5 3 11 6 N 1018,4 16 0,0
16.10.2019 21:00:00 14,8 10,6 12,2 6 3 11 6 N 1017,9 9 0,0
16.10.2019 20:00:00 16,4 10,3 12,5 5 3 9 5 NNE 1017,4 20 0,0
16.10.2019 19:00:00 19,2 9,9 14,7 3 2 11 6 NNE 1016,7 18 0,0
16.10.2019 18:00:00 21,4 7,2 19,2 10 5 23 12 WSW 1016,3 58 0,0
16.10.2019 17:00:00 23,2 6,9 25,9 11 6 28 15 SW 1016,2 60 0,0
16.10.2019 16:00:00 23,1 5,5 26,5 16 9 31 17 WSW 1016,4 60 0,0
16.10.2019 15:00:00 22,7 8,0 22,4 7 4 22 12 ESE 1016,4 60 0,0
16.10.2019 14:00:00 21,8 11,2 22,8 13 7 21 12 SE 1016,8 55 0,0
16.10.2019 13:00:00 20,5 12,2 26,1 11 6 20 11 SE 1017,2 50 0,0
16.10.2019 12:00:00 21,6 12,2 27,8 5 3 14 8 S 1017,2 57 0,0
16.10.2019 11:00:00 18,7 7,8 22,4 2 1 10 5 NNW 1017,2 14 0,0
16.10.2019 10:00:00 15,3 7,8 13,6 4 2 13 7 N 1017,1 46 0,0
16.10.2019 09:00:00 13,4 7,4 11,5 5 3 12 6 N 1016,6 60 0,0
16.10.2019 08:00:00 12,7 6,7 10,9 8 4 18 10 N 1015,8 60 0,0
16.10.2019 07:00:00 12,5 6,7 9,9 7 4 14 7 NNW 1015,1 60 0,0
16.10.2019 06:00:00 11,6 6,9 8,4 7 4 14 8 N 1014,7 60 0,0
16.10.2019 05:00:00 11,6 6,7 7,9 4 2 10 5 N 1014,2 60 0,0
16.10.2019 04:00:00 14,4 5,7 10,6 4 2 16 9 E 1013,0 60 0,0
16.10.2019 03:00:00 15,5 5,7 12,2 7 4 24 13 SW 1012,4 60 0,0
16.10.2019 02:00:00 16,7 5,6 14,6 9 5 64 34 E 1011,5 60 0,0
16.10.2019 01:00:00 15,6 6,8 14,7 32 17 64 35 W 1011,0 60 0,0
16.10.2019 00:00:00 16,0 7,2 15,0 34 19 59 32 WSW 1011,9 60 0,0
15.10.2019 23:00:00 16,7 7,9 15,2 24 13 57 31 W 1012,3 60 0,0
15.10.2019 22:00:00 17,6 7,6 16,1 29 16 50 27 W 1011,6 60 0,0
15.10.2019 21:00:00 17,7 8,5 16,1 30 16 51 28 W 1011,3 60 0,0
15.10.2019 20:00:00 18,4 8,6 16,9 29 15 51 28 W 1011,2 60 0,0
15.10.2019 19:00:00 19,0 9,2 17,3 26 14 49 26 WSW 1010,2 60 0,0
15.10.2019 18:00:00 20,3 10,1 19,5 19 11 49 26 W 1009,6 37 0,0
15.10.2019 17:00:00 21,8 11,8 23,7 24 13 42 23 WSW 1009,3 40 0,0
15.10.2019 16:00:00 22,1 14,0 25,2 24 13 40 21 WSW 1009,2 55 0,0
15.10.2019 15:00:00 22,3 16,8 24,2 18 10 33 18 SW 1009,3 60 0,0
15.10.2019 14:00:00 19,9 17,3 19,2 3 2 8 5 NE 1009,8 19 0,0
15.10.2019 13:00:00 18,1 16,9 18,2 4 2 10 5 NW 1010,4 59 0,2
15.10.2019 12:00:00 17,8 16,8 16,2 3 1 20 11 NNE 1010,9 43 4,7
15.10.2019 11:00:00 17,2 15,5 16,3 19 10 34 19 SW 1011,1 0,4 14,1
15.10.2019 10:00:00 21,2 19,7 20,3 19 10 38 21 S 1010,1 10 0,0
15.10.2019 09:00:00 20,8 19,5 19,6 22 12 39 21 S 1010,3 10 0,2
15.10.2019 08:00:00 20,2 19,5 17,8 9 5 20 11 SSE 1010,9 8 0,8
15.10.2019 07:00:00 18,0 17,5 17,4 3 1 16 9 NW 1011,5 1,1 6,1
15.10.2019 06:00:00 18,2 17,6 17,4 5 3 22 12 E 1011,9 6 24,8
15.10.2019 05:00:00 18,6 16,7 17,6 4 2 14 8 N 1012,8 2,7 2,6
15.10.2019 04:00:00 19,7 16,2 17,8 0 0 12 6 N 1013,2 7 0,2
15.10.2019 03:00:00 19,7 16,2 18,0 8 4 13 7 N 1014,6 19 0,0
15.10.2019 02:00:00 20,3 16,3 17,7 5 3 20 11 N 1015,3 20 0,0
15.10.2019 01:00:00 20,2 16,4 17,1 7 4 13 7 NNE 1015,6 20 0,0
15.10.2019 00:00:00 20,5 16,7 16,9 3 2 13 7 NNW 1016,2 20 0,0
14.10.2019 23:00:00 20,5 16,7 17,5 3 2 17 9 NNW 1016,8 20 0,0
14.10.2019 22:00:00 21,2 17,0 18,6 7 4 18 10 NE 1017,1 19 0,0
14.10.2019 21:00:00 20,6 17,4 18,7 5 3 11 6 N 1017,6 18 0,0
14.10.2019 20:00:00 20,9 17,3 19,0 5 3 18 10 N 1017,4 18 0,0
14.10.2019 19:00:00 21,3 17,5 20,1 9 5 30 16 ENE 1016,8 28 0,0
14.10.2019 18:00:00 22,0 17,4 21,6 10 6 27 15 ENE 1017,2 33 0,0
14.10.2019 17:00:00 22,9 17,4 25,5 16 8 29 16 E 1017,5 20 0,0
14.10.2019 16:00:00 23,8 17,1 28,3 14 7 31 17 ENE 1017,9 20 0,0
14.10.2019 15:00:00 24,3 16,6 25,7 13 7 26 14 E 1018,2 19 0,0
14.10.2019 14:00:00 24,9 16,9 26,3 11 6 30 16 ESE 1018,9 20 0,0
14.10.2019 13:00:00 24,3 16,0 27,1 16 8 39 21 E 1019,7 47 0,0
14.10.2019 12:00:00 24,1 15,8 28,6 13 7 32 17 ENE 1020,2 19 0,0
14.10.2019 11:00:00 23,4 16,0 27,5 13 7 35 19 ENE 1020,5 20 0,0
14.10.2019 10:00:00 22,5 15,3 21,8 7 4 17 9 NNE 1020,6 19 0,0
14.10.2019 09:00:00 18,0 14,9 15,3 7 4 12 6 N 1020,4 17 0,0
14.10.2019 08:00:00 16,4 14,2 15,0 8 4 12 6 N 1020,0 10 0,0
14.10.2019 07:00:00 16,3 14,1 15,2 7 4 13 7 N 1020,1 33 0,0
14.10.2019 06:00:00 16,1 14,5 14,8 8 4 13 7 N 1020,2 31 0,0
14.10.2019 05:00:00 16,3 14,5 15,2 7 4 13 7 N 1020,1 32 0,0
14.10.2019 04:00:00 17,0 15,0 16,2 8 4 12 6 N 1020,3 35 0,0
14.10.2019 03:00:00 17,3 15,1 16,0 6 4 13 7 N 1020,9 36 0,0
14.10.2019 02:00:00 17,5 15,1 15,2 6 4 11 6 NNE 1021,1 36 0,0
14.10.2019 01:00:00 18,3 15,2 15,0 4 2 8 4 NNE 1021,4 42 0,0
14.10.2019 00:00:00 19,2 15,7 16,0 4 2 9 5 N 1021,9 47 0,0
13.10.2019 23:00:00 20,6 15,6 18,4 5 3 17 9 NE 1021,9 60 0,0
13.10.2019 22:00:00 20,9 16,1 20,2 6 4 22 12 NE 1021,8 60 0,0
13.10.2019 21:00:00 20,7 16,3 20,1 9 5 23 12 ENE 1021,6 58 0,0
13.10.2019 20:00:00 20,6 16,8 19,5 11 6 22 12 ENE 1021,6 48 0,0
13.10.2019 19:00:00 20,5 17,3 19,3 8 4 25 14 E 1021,5 39 0,0
13.10.2019 18:00:00 21,0 17,0 20,7 10 5 29 15 E 1021,4 48 0,0
13.10.2019 17:00:00 21,8 17,4 22,5 6 4 28 15 E 1021,6 58 0,0
13.10.2019 16:00:00 22,6 16,6 24,8 13 7 26 14 ESE 1021,7 59 0,0
13.10.2019 15:00:00 23,8 16,8 26,6 10 5 23 12 E 1021,8 58 0,0
13.10.2019 14:00:00 23,6 15,6 26,6 11 6 22 12 E 1022,2 60 0,0
13.10.2019 13:00:00 23,2 15,3 28,0 8 5 20 11 ENE 1022,9 20 0,0
13.10.2019 12:00:00 22,9 15,2 27,5 10 5 27 14 E 1023,0 41 0,0
13.10.2019 11:00:00 22,2 14,8 22,9 8 4 16 9 E 1022,9 60 0,0
13.10.2019 10:00:00 17,9 13,6 18,0 4 2 15 8 NNE 1022,8 40 0,0
13.10.2019 09:00:00 14,4 12,3 12,5 8 4 16 9 N 1022,5 20 0,0
13.10.2019 08:00:00 13,2 11,4 12,0 9 5 16 9 N 1022,3 31 0,0
13.10.2019 07:00:00 13,0 11,2 12,0 9 5 17 9 N 1022,1 28 0,0
13.10.2019 06:00:00 13,1 11,3 12,3 8 4 18 10 N 1022,2 29 0,0
13.10.2019 05:00:00 13,0 11,4 12,2 11 6 20 11 N 1022,3 26 0,0
13.10.2019 04:00:00 13,1 11,7 12,1 9 5 16 9 N 1022,7 19 0,0
13.10.2019 03:00:00 13,2 11,8 12,2 7 4 16 9 N 1023,1 18 0,0
13.10.2019 02:00:00 13,5 12,2 12,5 8 4 16 9 NNE 1023,1 15 0,0
13.10.2019 01:00:00 13,8 12,5 13,0 10 5 17 9 N 1023,1 14 0,0
13.10.2019 00:00:00 14,2 12,9 13,2 9 5 14 8 NNE 1023,5 12 0,0
12.10.2019 23:00:00 14,7 13,4 13,3 8 4 11 6 N 1023,4 13 0,0
12.10.2019 22:00:00 15,4 13,8 13,7 5 3 10 6 NNE 1023,2 16 0,0
12.10.2019 21:00:00 16,2 14,2 14,1 6 4 10 5 N 1023,1 15 0,0
12.10.2019 20:00:00 17,5 14,8 13,4 4 2 5 3 N 1022,8 17 0,0

tt = Température de l'air
td = dewpoint
tt 5cm = Température de l'air 5cm
ff = Vitesse du vent
fx = gusts
dd = Direction du vent
ppp = reduced air pressure
vv = visibility
rr = Quantités de précipitations

stations d'obs. à proximité